Visibility
15.0 15.0 15.0 15.0 15.0 15.0 15.0 15.0 15.0 15.0 15.0 15.0 15.0 15.0 15.0 15.0 15.0 15.0 15.0 15.0 15.0 15.0 15.0 15.0 14.8 9.7 13.5
15.0 15.0 15.0 15.0 15.0 15.0 15.0 15.0 15.0 15.0 15.0 15.0 15.0 15.0 15.0 15.0 15.0 15.0 15.0 15.0 15.0 15.0 15.0 14.8 12.0 14.7 9.6
13.8 15.0 15.0 15.0 15.0 15.0 15.0 15.0 15.0 15.0 15.0 15.0 15.0 15.0 15.0 15.0 15.0 15.0 15.0 15.0 15.0 15.0 15.0 15.0 15.0 15.0 15.0
15.0 15.0 15.0 15.0 15.0 15.0 15.0 15.0 15.0 15.0 15.0 15.0 15.0 15.0 15.0 15.0 15.0 15.0 15.0 15.0 15.0 15.0 15.0 15.0 15.0 15.0 15.0
5.7 7.1 15.0 15.0 15.0 15.0 12.5 15.0 15.0 15.0 15.0 15.0 15.0 15.0 15.0 15.0 15.0 15.0 15.0 15.0 15.0 15.0 15.0 15.0 15.0 15.0 15.0
3.7 15.0 15.0 15.0 15.0 15.0 4.7 0.7 0.7 15.0 15.0 13.1 15.0 15.0 15.0 15.0 15.0 15.0 15.0 15.0 15.0 15.0 15.0 10.6 10.6 15.0 15.0
15.0 15.0 15.0 15.0 11.8 1.4 4.1 0.8 1.0 15.0 13.9 0.6 15.0 15.0 15.0 15.0 15.0 15.0 15.0 15.0 15.0 15.0 15.0 14.4 3.4 5.5 14.6
15.0 15.0 15.0 11.5 10.5 8.2 4.4 4.6 9.6 15.0 15.0 0.6 15.0 15.0 15.0 15.0 15.0 15.0 15.0 15.0 15.0 15.0 15.0 12.2 14.8 7.8 3.8
15.0 15.0 15.0 15.0 15.0 14.7 2.8 1.4 1.5 15.0 15.0 14.3 5.5 15.0 14.2 15.0 15.0 15.0 15.0 15.0 15.0 9.6 3.7 2.2 2.5 3.4 3.9
15.0 15.0 15.0 15.0 15.0 15.0 9.3 0.1 0.2 0.3 15.0 2.0 1.6 2.3 0.2 15.0 15.0 15.0 15.0 15.0 7.2 5.6 3.6 2.4 1.3 0.1 0.1
15.0 15.0 15.0 15.0 15.0 15.0 11.4 7.2 0.1 0.3 15.0 14.2 0.2 0.6 1.5 0.9 15.0 15.0 15.0 14.1 4.2 5.1 2.7 2.6 1.0 0.0 0.0
8.0 7.7 10.4 13.8 15.0 14.2 12.0 15.0 11.3 5.6 14.0 14.7 0.1 0.2 0.2 0.3 0.5 15.0 15.0 15.0 0.4 0.1 6.0 0.1 5.5 10.6 0.1
15.0 14.9 11.8 10.7 15.0 11.4 14.4 15.0 15.0 12.7 15.0 15.0 11.3 1.3 0.1 0.1 0.2 2.9 3.5 5.4 15.0 0.1 0.6 5.7 6.0 15.0 14.9
14.8 8.5 14.7 15.0 9.1 8.1 15.0 15.0 1.8 12.9 15.0 15.0 15.0 0.1 0.1 0.2 0.1 0.2 14.2 0.1 3.4 11.6 15.0 15.0 15.0 14.8 15.0
14.6 9.9 9.6 15.0 13.4 8.8 15.0 10.6 0.6 2.2 13.8 15.0 15.0 13.4 14.9 0.3 0.1 1.6 0.1 0.1 0.2 0.0 0.9 0.1 4.8 15.0 15.0
4.1 3.9 2.5 0.5 0.8 11.8 15.0 7.9 0.6 1.9 8.9 15.0 1.6 5.5 15.0 15.0 5.4 0.1 0.2 0.1 0.1 0.3 5.1 0.0 0.0 4.4 15.0
1.8 3.1 1.2 0.5 1.9 0.6 1.1 9.3 2.0 6.2 7.1 15.0 0.3 0.1 0.1 0.7 15.0 4.4 0.1 0.1 0.1 0.1 0.1 5.1 0.1 0.1 15.0